<?xml version="1.0" encoding="UTF-8" standalone="no" ?>
<gpx xmlns="http://www.topografix.com/GPX/1/1" xmlns:xsi="http://www.w3.org/2001/XMLSchema-instance" xsi:schemaLocation="http://www.topografix.com/GPX/1/1 http://www.topografix.com/GPX/1/1/gpx.xsd" version="1.1" creator="VisuGPX - https://www.visugpx.com">
  <metadata>
    <name>Randonnée Vélo Sud 2012 (jour 3)</name>
    <desc><![CDATA[Randonnée cyclotouriste en boucle Toulouse-Lannemezan-Aiguillon-Toulouse. Elle emprunte les Véloroutes Garonne Pyrénées Adour et Baïse pour faire connaître les aménagements existants et demander leur amélioration ainsi que la création des aménagements là où ils n'existent pas.
http://toulousevelo.le-pic.org/randovelosud2012/]]></desc>
  </metadata>
  <trk>
    <name><![CDATA[StGau-Capvern]]></name>
    <trkseg>
      <trkpt lat="43.10989" lon="0.70793">
        <ele>408.7</ele>
        <time>1970-01-01T00:00:00Z</time>
      </trkpt>
      <trkpt lat="43.10949" lon="0.70833">
        <ele>408.6</ele>
        <time>1970-01-01T00:00:00Z</time>
      </trkpt>
      <trkpt lat="43.10928" lon="0.70897">
        <ele>409</ele>
        <time>1970-01-01T00:00:00Z</time>
      </trkpt>
      <trkpt lat="43.109" lon="0.70898">
        <ele>408.8</ele>
        <time>1970-01-01T00:00:00Z</time>
      </trkpt>
      <trkpt lat="43.10876" lon="0.70909">
        <ele>408.5</ele>
        <time>1970-01-01T00:00:00Z</time>
      </trkpt>
      <trkpt lat="43.10854" lon="0.70937">
        <ele>408.2</ele>
        <time>1970-01-01T00:00:00Z</time>
      </trkpt>
      <trkpt lat="43.10703" lon="0.70975">
        <ele>409.2</ele>
        <time>1970-01-01T00:00:00Z</time>
      </trkpt>
      <trkpt lat="43.10593" lon="0.71061">
        <ele>409.1</ele>
        <time>1970-01-01T00:00:00Z</time>
      </trkpt>
      <trkpt lat="43.10135" lon="0.70999">
        <ele>391.6</ele>
        <time>1970-01-01T00:00:00Z</time>
      </trkpt>
      <trkpt lat="43.09965" lon="0.70932">
        <ele>375.3</ele>
        <time>1970-01-01T00:00:00Z</time>
      </trkpt>
      <trkpt lat="43.09892" lon="0.70805">
        <ele>368.2</ele>
        <time>1970-01-01T00:00:00Z</time>
      </trkpt>
      <trkpt lat="43.099" lon="0.70771">
        <ele>367.3</ele>
        <time>1970-01-01T00:00:00Z</time>
      </trkpt>
      <trkpt lat="43.09889" lon="0.70747">
        <ele>366.7</ele>
        <time>1970-01-01T00:00:00Z</time>
      </trkpt>
      <trkpt lat="43.09859" lon="0.70751">
        <ele>366.3</ele>
        <time>1970-01-01T00:00:00Z</time>
      </trkpt>
      <trkpt lat="43.09844" lon="0.70723">
        <ele>366.4</ele>
        <time>1970-01-01T00:00:00Z</time>
      </trkpt>
      <trkpt lat="43.09814" lon="0.70686">
        <ele>366.6</ele>
        <time>1970-01-01T00:00:00Z</time>
      </trkpt>
      <trkpt lat="43.0973" lon="0.70627">
        <ele>364.8</ele>
        <time>1970-01-01T00:00:00Z</time>
      </trkpt>
      <trkpt lat="43.09685" lon="0.70587">
        <ele>364</ele>
        <time>1970-01-01T00:00:00Z</time>
      </trkpt>
      <trkpt lat="43.09662" lon="0.70536">
        <ele>363.4</ele>
        <time>1970-01-01T00:00:00Z</time>
      </trkpt>
      <trkpt lat="43.0959" lon="0.70232">
        <ele>364.8</ele>
        <time>1970-01-01T00:00:00Z</time>
      </trkpt>
      <trkpt lat="43.09614" lon="0.70209">
        <ele>365.3</ele>
        <time>1970-01-01T00:00:00Z</time>
      </trkpt>
      <trkpt lat="43.09665" lon="0.7021">
        <ele>367.4</ele>
        <time>1970-01-01T00:00:00Z</time>
      </trkpt>
      <trkpt lat="43.09658" lon="0.70172">
        <ele>366.7</ele>
        <time>1970-01-01T00:00:00Z</time>
      </trkpt>
      <trkpt lat="43.09664" lon="0.70128">
        <ele>366</ele>
        <time>1970-01-01T00:00:00Z</time>
      </trkpt>
      <trkpt lat="43.09698" lon="0.70105">
        <ele>364.6</ele>
        <time>1970-01-01T00:00:00Z</time>
      </trkpt>
      <trkpt lat="43.09746" lon="0.70103">
        <ele>363.1</ele>
        <time>1970-01-01T00:00:00Z</time>
      </trkpt>
      <trkpt lat="43.0978" lon="0.70102">
        <ele>363.4</ele>
        <time>1970-01-01T00:00:00Z</time>
      </trkpt>
      <trkpt lat="43.09809" lon="0.7001">
        <ele>365.5</ele>
        <time>1970-01-01T00:00:00Z</time>
      </trkpt>
      <trkpt lat="43.09798" lon="0.69818">
        <ele>365.3</ele>
        <time>1970-01-01T00:00:00Z</time>
      </trkpt>
      <trkpt lat="43.09843" lon="0.6959">
        <ele>364.3</ele>
        <time>1970-01-01T00:00:00Z</time>
      </trkpt>
      <trkpt lat="43.09929" lon="0.69263">
        <ele>368.3</ele>
        <time>1970-01-01T00:00:00Z</time>
      </trkpt>
      <trkpt lat="43.0971" lon="0.69117">
        <ele>367.7</ele>
        <time>1970-01-01T00:00:00Z</time>
      </trkpt>
      <trkpt lat="43.09793" lon="0.68762">
        <ele>369</ele>
        <time>1970-01-01T00:00:00Z</time>
      </trkpt>
      <trkpt lat="43.09792" lon="0.68702">
        <ele>369.3</ele>
        <time>1970-01-01T00:00:00Z</time>
      </trkpt>
      <trkpt lat="43.09915" lon="0.68116">
        <ele>377.2</ele>
        <time>1970-01-01T00:00:00Z</time>
      </trkpt>
      <trkpt lat="43.09965" lon="0.68071">
        <ele>378.8</ele>
        <time>1970-01-01T00:00:00Z</time>
      </trkpt>
      <trkpt lat="43.10011" lon="0.67988">
        <ele>375.8</ele>
        <time>1970-01-01T00:00:00Z</time>
      </trkpt>
      <trkpt lat="43.1005" lon="0.67891">
        <ele>371.8</ele>
        <time>1970-01-01T00:00:00Z</time>
      </trkpt>
      <trkpt lat="43.10074" lon="0.67797">
        <ele>369.6</ele>
        <time>1970-01-01T00:00:00Z</time>
      </trkpt>
      <trkpt lat="43.10096" lon="0.67761">
        <ele>369.5</ele>
        <time>1970-01-01T00:00:00Z</time>
      </trkpt>
      <trkpt lat="43.10107" lon="0.6769">
        <ele>371.4</ele>
        <time>1970-01-01T00:00:00Z</time>
      </trkpt>
      <trkpt lat="43.1014" lon="0.67514">
        <ele>371.9</ele>
        <time>1970-01-01T00:00:00Z</time>
      </trkpt>
      <trkpt lat="43.10106" lon="0.67477">
        <ele>375.3</ele>
        <time>1970-01-01T00:00:00Z</time>
      </trkpt>
      <trkpt lat="43.10076" lon="0.67379">
        <ele>379.1</ele>
        <time>1970-01-01T00:00:00Z</time>
      </trkpt>
      <trkpt lat="43.10065" lon="0.67292">
        <ele>378.9</ele>
        <time>1970-01-01T00:00:00Z</time>
      </trkpt>
      <trkpt lat="43.10081" lon="0.67212">
        <ele>378.5</ele>
        <time>1970-01-01T00:00:00Z</time>
      </trkpt>
      <trkpt lat="43.10124" lon="0.67115">
        <ele>380.6</ele>
        <time>1970-01-01T00:00:00Z</time>
      </trkpt>
      <trkpt lat="43.10178" lon="0.67015">
        <ele>378.5</ele>
        <time>1970-01-01T00:00:00Z</time>
      </trkpt>
      <trkpt lat="43.10253" lon="0.66929">
        <ele>378</ele>
        <time>1970-01-01T00:00:00Z</time>
      </trkpt>
      <trkpt lat="43.10292" lon="0.66859">
        <ele>378.6</ele>
        <time>1970-01-01T00:00:00Z</time>
      </trkpt>
      <trkpt lat="43.10317" lon="0.66776">
        <ele>379</ele>
        <time>1970-01-01T00:00:00Z</time>
      </trkpt>
      <trkpt lat="43.10292" lon="0.66706">
        <ele>378.5</ele>
        <time>1970-01-01T00:00:00Z</time>
      </trkpt>
      <trkpt lat="43.10244" lon="0.66606">
        <ele>379.9</ele>
        <time>1970-01-01T00:00:00Z</time>
      </trkpt>
      <trkpt lat="43.10226" lon="0.66481">
        <ele>382</ele>
        <time>1970-01-01T00:00:00Z</time>
      </trkpt>
      <trkpt lat="43.10237" lon="0.66385">
        <ele>382.1</ele>
        <time>1970-01-01T00:00:00Z</time>
      </trkpt>
      <trkpt lat="43.10267" lon="0.66275">
        <ele>383.1</ele>
        <time>1970-01-01T00:00:00Z</time>
      </trkpt>
      <trkpt lat="43.10267" lon="0.66245">
        <ele>383.6</ele>
        <time>1970-01-01T00:00:00Z</time>
      </trkpt>
      <trkpt lat="43.10468" lon="0.66061">
        <ele>384</ele>
        <time>1970-01-01T00:00:00Z</time>
      </trkpt>
      <trkpt lat="43.10511" lon="0.66006">
        <ele>381.9</ele>
        <time>1970-01-01T00:00:00Z</time>
      </trkpt>
      <trkpt lat="43.10524" lon="0.65956">
        <ele>382.3</ele>
        <time>1970-01-01T00:00:00Z</time>
      </trkpt>
      <trkpt lat="43.10394" lon="0.65334">
        <ele>389.6</ele>
        <time>1970-01-01T00:00:00Z</time>
      </trkpt>
      <trkpt lat="43.10366" lon="0.65206">
        <ele>391.6</ele>
        <time>1970-01-01T00:00:00Z</time>
      </trkpt>
      <trkpt lat="43.10235" lon="0.64724">
        <ele>390.5</ele>
        <time>1970-01-01T00:00:00Z</time>
      </trkpt>
      <trkpt lat="43.10132" lon="0.64464">
        <ele>391.7</ele>
        <time>1970-01-01T00:00:00Z</time>
      </trkpt>
      <trkpt lat="43.09956" lon="0.64073">
        <ele>393.3</ele>
        <time>1970-01-01T00:00:00Z</time>
      </trkpt>
      <trkpt lat="43.09814" lon="0.63851">
        <ele>394.2</ele>
        <time>1970-01-01T00:00:00Z</time>
      </trkpt>
      <trkpt lat="43.09641" lon="0.63662">
        <ele>394.5</ele>
        <time>1970-01-01T00:00:00Z</time>
      </trkpt>
      <trkpt lat="43.09633" lon="0.63648">
        <ele>394.5</ele>
        <time>1970-01-01T00:00:00Z</time>
      </trkpt>
      <trkpt lat="43.09622" lon="0.63591">
        <ele>393.7</ele>
        <time>1970-01-01T00:00:00Z</time>
      </trkpt>
      <trkpt lat="43.09589" lon="0.63529">
        <ele>393.3</ele>
        <time>1970-01-01T00:00:00Z</time>
      </trkpt>
      <trkpt lat="43.09546" lon="0.63484">
        <ele>394.4</ele>
        <time>1970-01-01T00:00:00Z</time>
      </trkpt>
      <trkpt lat="43.09397" lon="0.63426">
        <ele>403.7</ele>
        <time>1970-01-01T00:00:00Z</time>
      </trkpt>
      <trkpt lat="43.0931" lon="0.63341">
        <ele>399.3</ele>
        <time>1970-01-01T00:00:00Z</time>
      </trkpt>
      <trkpt lat="43.0927" lon="0.63249">
        <ele>397.5</ele>
        <time>1970-01-01T00:00:00Z</time>
      </trkpt>
      <trkpt lat="43.09143" lon="0.6316">
        <ele>397.6</ele>
        <time>1970-01-01T00:00:00Z</time>
      </trkpt>
      <trkpt lat="43.09087" lon="0.63091">
        <ele>398.1</ele>
        <time>1970-01-01T00:00:00Z</time>
      </trkpt>
      <trkpt lat="43.09056" lon="0.62996">
        <ele>398.6</ele>
        <time>1970-01-01T00:00:00Z</time>
      </trkpt>
      <trkpt lat="43.09028" lon="0.62852">
        <ele>398.6</ele>
        <time>1970-01-01T00:00:00Z</time>
      </trkpt>
      <trkpt lat="43.08988" lon="0.62771">
        <ele>401.2</ele>
        <time>1970-01-01T00:00:00Z</time>
      </trkpt>
      <trkpt lat="43.08944" lon="0.62649">
        <ele>405.6</ele>
        <time>1970-01-01T00:00:00Z</time>
      </trkpt>
      <trkpt lat="43.08924" lon="0.62399">
        <ele>402.8</ele>
        <time>1970-01-01T00:00:00Z</time>
      </trkpt>
      <trkpt lat="43.08819" lon="0.62082">
        <ele>414.2</ele>
        <time>1970-01-01T00:00:00Z</time>
      </trkpt>
      <trkpt lat="43.08755" lon="0.61827">
        <ele>414.8</ele>
        <time>1970-01-01T00:00:00Z</time>
      </trkpt>
      <trkpt lat="43.087" lon="0.61629">
        <ele>417.1</ele>
        <time>1970-01-01T00:00:00Z</time>
      </trkpt>
      <trkpt lat="43.08645" lon="0.61483">
        <ele>418.2</ele>
        <time>1970-01-01T00:00:00Z</time>
      </trkpt>
      <trkpt lat="43.08569" lon="0.61229">
        <ele>416.3</ele>
        <time>1970-01-01T00:00:00Z</time>
      </trkpt>
      <trkpt lat="43.08494" lon="0.61078">
        <ele>417.9</ele>
        <time>1970-01-01T00:00:00Z</time>
      </trkpt>
      <trkpt lat="43.08415" lon="0.60963">
        <ele>418</ele>
        <time>1970-01-01T00:00:00Z</time>
      </trkpt>
      <trkpt lat="43.08352" lon="0.60809">
        <ele>420.8</ele>
        <time>1970-01-01T00:00:00Z</time>
      </trkpt>
      <trkpt lat="43.08248" lon="0.60572">
        <ele>421.7</ele>
        <time>1970-01-01T00:00:00Z</time>
      </trkpt>
      <trkpt lat="43.08208" lon="0.60447">
        <ele>419.1</ele>
        <time>1970-01-01T00:00:00Z</time>
      </trkpt>
      <trkpt lat="43.08111" lon="0.60281">
        <ele>414.9</ele>
        <time>1970-01-01T00:00:00Z</time>
      </trkpt>
      <trkpt lat="43.08027" lon="0.60171">
        <ele>413</ele>
        <time>1970-01-01T00:00:00Z</time>
      </trkpt>
      <trkpt lat="43.07982" lon="0.60077">
        <ele>412.3</ele>
        <time>1970-01-01T00:00:00Z</time>
      </trkpt>
      <trkpt lat="43.07949" lon="0.59925">
        <ele>411.5</ele>
        <time>1970-01-01T00:00:00Z</time>
      </trkpt>
      <trkpt lat="43.07929" lon="0.59784">
        <ele>410.8</ele>
        <time>1970-01-01T00:00:00Z</time>
      </trkpt>
      <trkpt lat="43.07916" lon="0.59751">
        <ele>411</ele>
        <time>1970-01-01T00:00:00Z</time>
      </trkpt>
      <trkpt lat="43.07912" lon="0.59607">
        <ele>414</ele>
        <time>1970-01-01T00:00:00Z</time>
      </trkpt>
      <trkpt lat="43.07895" lon="0.59564">
        <ele>416.7</ele>
        <time>1970-01-01T00:00:00Z</time>
      </trkpt>
      <trkpt lat="43.07857" lon="0.59532">
        <ele>421</ele>
        <time>1970-01-01T00:00:00Z</time>
      </trkpt>
      <trkpt lat="43.07866" lon="0.59504">
        <ele>419.5</ele>
        <time>1970-01-01T00:00:00Z</time>
      </trkpt>
      <trkpt lat="43.07884" lon="0.59479">
        <ele>416.8</ele>
        <time>1970-01-01T00:00:00Z</time>
      </trkpt>
      <trkpt lat="43.07879" lon="0.59419">
        <ele>414.8</ele>
        <time>1970-01-01T00:00:00Z</time>
      </trkpt>
      <trkpt lat="43.07862" lon="0.59373">
        <ele>414.9</ele>
        <time>1970-01-01T00:00:00Z</time>
      </trkpt>
      <trkpt lat="43.07859" lon="0.59297">
        <ele>413</ele>
        <time>1970-01-01T00:00:00Z</time>
      </trkpt>
      <trkpt lat="43.07817" lon="0.59194">
        <ele>414.4</ele>
        <time>1970-01-01T00:00:00Z</time>
      </trkpt>
      <trkpt lat="43.07771" lon="0.59078">
        <ele>415.6</ele>
        <time>1970-01-01T00:00:00Z</time>
      </trkpt>
      <trkpt lat="43.07734" lon="0.5891">
        <ele>411.8</ele>
        <time>1970-01-01T00:00:00Z</time>
      </trkpt>
      <trkpt lat="43.07722" lon="0.58779">
        <ele>416.2</ele>
        <time>1970-01-01T00:00:00Z</time>
      </trkpt>
      <trkpt lat="43.07731" lon="0.58678">
        <ele>417.7</ele>
        <time>1970-01-01T00:00:00Z</time>
      </trkpt>
      <trkpt lat="43.07748" lon="0.58612">
        <ele>416.3</ele>
        <time>1970-01-01T00:00:00Z</time>
      </trkpt>
      <trkpt lat="43.07798" lon="0.58482">
        <ele>415.8</ele>
        <time>1970-01-01T00:00:00Z</time>
      </trkpt>
      <trkpt lat="43.07781" lon="0.58463">
        <ele>417.2</ele>
        <time>1970-01-01T00:00:00Z</time>
      </trkpt>
      <trkpt lat="43.07765" lon="0.58423">
        <ele>418.9</ele>
        <time>1970-01-01T00:00:00Z</time>
      </trkpt>
      <trkpt lat="43.07743" lon="0.58355">
        <ele>420</ele>
        <time>1970-01-01T00:00:00Z</time>
      </trkpt>
      <trkpt lat="43.07748" lon="0.583">
        <ele>419.2</ele>
        <time>1970-01-01T00:00:00Z</time>
      </trkpt>
      <trkpt lat="43.07762" lon="0.5827">
        <ele>418.5</ele>
        <time>1970-01-01T00:00:00Z</time>
      </trkpt>
      <trkpt lat="43.07751" lon="0.58227">
        <ele>418.9</ele>
        <time>1970-01-01T00:00:00Z</time>
      </trkpt>
      <trkpt lat="43.07719" lon="0.58187">
        <ele>420.2</ele>
        <time>1970-01-01T00:00:00Z</time>
      </trkpt>
      <trkpt lat="43.07685" lon="0.58114">
        <ele>420.1</ele>
        <time>1970-01-01T00:00:00Z</time>
      </trkpt>
      <trkpt lat="43.07669" lon="0.58062">
        <ele>420.2</ele>
        <time>1970-01-01T00:00:00Z</time>
      </trkpt>
      <trkpt lat="43.07713" lon="0.57856">
        <ele>420.6</ele>
        <time>1970-01-01T00:00:00Z</time>
      </trkpt>
      <trkpt lat="43.07747" lon="0.57836">
        <ele>420</ele>
        <time>1970-01-01T00:00:00Z</time>
      </trkpt>
      <trkpt lat="43.0784" lon="0.57356">
        <ele>422</ele>
        <time>1970-01-01T00:00:00Z</time>
      </trkpt>
      <trkpt lat="43.08228" lon="0.57525">
        <ele>417.7</ele>
        <time>1970-01-01T00:00:00Z</time>
      </trkpt>
      <trkpt lat="43.08348" lon="0.57507">
        <ele>421.2</ele>
        <time>1970-01-01T00:00:00Z</time>
      </trkpt>
      <trkpt lat="43.0844" lon="0.57426">
        <ele>426.6</ele>
        <time>1970-01-01T00:00:00Z</time>
      </trkpt>
      <trkpt lat="43.08433" lon="0.57362">
        <ele>429.8</ele>
        <time>1970-01-01T00:00:00Z</time>
      </trkpt>
      <trkpt lat="43.08426" lon="0.57314">
        <ele>433.1</ele>
        <time>1970-01-01T00:00:00Z</time>
      </trkpt>
      <trkpt lat="43.0839" lon="0.57272">
        <ele>438.5</ele>
        <time>1970-01-01T00:00:00Z</time>
      </trkpt>
      <trkpt lat="43.08377" lon="0.57232">
        <ele>445.3</ele>
        <time>1970-01-01T00:00:00Z</time>
      </trkpt>
      <trkpt lat="43.0838" lon="0.57194">
        <ele>452.9</ele>
        <time>1970-01-01T00:00:00Z</time>
      </trkpt>
      <trkpt lat="43.08356" lon="0.57149">
        <ele>458.8</ele>
        <time>1970-01-01T00:00:00Z</time>
      </trkpt>
      <trkpt lat="43.08335" lon="0.57058">
        <ele>463</ele>
        <time>1970-01-01T00:00:00Z</time>
      </trkpt>
      <trkpt lat="43.08333" lon="0.56944">
        <ele>462.9</ele>
        <time>1970-01-01T00:00:00Z</time>
      </trkpt>
      <trkpt lat="43.0835" lon="0.56798">
        <ele>459.8</ele>
        <time>1970-01-01T00:00:00Z</time>
      </trkpt>
      <trkpt lat="43.08368" lon="0.56693">
        <ele>454.1</ele>
        <time>1970-01-01T00:00:00Z</time>
      </trkpt>
      <trkpt lat="43.08386" lon="0.5659">
        <ele>455.5</ele>
        <time>1970-01-01T00:00:00Z</time>
      </trkpt>
      <trkpt lat="43.08375" lon="0.56396">
        <ele>465.5</ele>
        <time>1970-01-01T00:00:00Z</time>
      </trkpt>
      <trkpt lat="43.0848" lon="0.56376">
        <ele>471.1</ele>
        <time>1970-01-01T00:00:00Z</time>
      </trkpt>
      <trkpt lat="43.08408" lon="0.56214">
        <ele>473.8</ele>
        <time>1970-01-01T00:00:00Z</time>
      </trkpt>
      <trkpt lat="43.08213" lon="0.5625">
        <ele>471.6</ele>
        <time>1970-01-01T00:00:00Z</time>
      </trkpt>
      <trkpt lat="43.0813" lon="0.56263">
        <ele>469.9</ele>
        <time>1970-01-01T00:00:00Z</time>
      </trkpt>
      <trkpt lat="43.08088" lon="0.56227">
        <ele>470.6</ele>
        <time>1970-01-01T00:00:00Z</time>
      </trkpt>
      <trkpt lat="43.08069" lon="0.56171">
        <ele>470.8</ele>
        <time>1970-01-01T00:00:00Z</time>
      </trkpt>
      <trkpt lat="43.08064" lon="0.56122">
        <ele>470.8</ele>
        <time>1970-01-01T00:00:00Z</time>
      </trkpt>
      <trkpt lat="43.0803" lon="0.56094">
        <ele>468.7</ele>
        <time>1970-01-01T00:00:00Z</time>
      </trkpt>
      <trkpt lat="43.07994" lon="0.56054">
        <ele>467.1</ele>
        <time>1970-01-01T00:00:00Z</time>
      </trkpt>
      <trkpt lat="43.07883" lon="0.5568">
        <ele>462.9</ele>
        <time>1970-01-01T00:00:00Z</time>
      </trkpt>
      <trkpt lat="43.07853" lon="0.55657">
        <ele>458.2</ele>
        <time>1970-01-01T00:00:00Z</time>
      </trkpt>
      <trkpt lat="43.0779" lon="0.55648">
        <ele>444.3</ele>
        <time>1970-01-01T00:00:00Z</time>
      </trkpt>
      <trkpt lat="43.07529" lon="0.5539">
        <ele>430.6</ele>
        <time>1970-01-01T00:00:00Z</time>
      </trkpt>
      <trkpt lat="43.0751" lon="0.55366">
        <ele>428.8</ele>
        <time>1970-01-01T00:00:00Z</time>
      </trkpt>
      <trkpt lat="43.07418" lon="0.55331">
        <ele>424.2</ele>
        <time>1970-01-01T00:00:00Z</time>
      </trkpt>
      <trkpt lat="43.07321" lon="0.5518">
        <ele>430.6</ele>
        <time>1970-01-01T00:00:00Z</time>
      </trkpt>
      <trkpt lat="43.07293" lon="0.55131">
        <ele>430.9</ele>
        <time>1970-01-01T00:00:00Z</time>
      </trkpt>
      <trkpt lat="43.07232" lon="0.54925">
        <ele>428</ele>
        <time>1970-01-01T00:00:00Z</time>
      </trkpt>
      <trkpt lat="43.07227" lon="0.54801">
        <ele>427</ele>
        <time>1970-01-01T00:00:00Z</time>
      </trkpt>
      <trkpt lat="43.07213" lon="0.54701">
        <ele>429.7</ele>
        <time>1970-01-01T00:00:00Z</time>
      </trkpt>
      <trkpt lat="43.07171" lon="0.54582">
        <ele>427.3</ele>
        <time>1970-01-01T00:00:00Z</time>
      </trkpt>
      <trkpt lat="43.07114" lon="0.54438">
        <ele>428.9</ele>
        <time>1970-01-01T00:00:00Z</time>
      </trkpt>
      <trkpt lat="43.07124" lon="0.54172">
        <ele>430.5</ele>
        <time>1970-01-01T00:00:00Z</time>
      </trkpt>
      <trkpt lat="43.07138" lon="0.53888">
        <ele>431.7</ele>
        <time>1970-01-01T00:00:00Z</time>
      </trkpt>
      <trkpt lat="43.07188" lon="0.53758">
        <ele>434.5</ele>
        <time>1970-01-01T00:00:00Z</time>
      </trkpt>
      <trkpt lat="43.07216" lon="0.5362">
        <ele>432.9</ele>
        <time>1970-01-01T00:00:00Z</time>
      </trkpt>
      <trkpt lat="43.07213" lon="0.53424">
        <ele>434.6</ele>
        <time>1970-01-01T00:00:00Z</time>
      </trkpt>
      <trkpt lat="43.07215" lon="0.53179">
        <ele>437.7</ele>
        <time>1970-01-01T00:00:00Z</time>
      </trkpt>
      <trkpt lat="43.07217" lon="0.5312">
        <ele>438.1</ele>
        <time>1970-01-01T00:00:00Z</time>
      </trkpt>
      <trkpt lat="43.07269" lon="0.52952">
        <ele>442.6</ele>
        <time>1970-01-01T00:00:00Z</time>
      </trkpt>
      <trkpt lat="43.0729" lon="0.5276">
        <ele>445.8</ele>
        <time>1970-01-01T00:00:00Z</time>
      </trkpt>
      <trkpt lat="43.07307" lon="0.5271">
        <ele>447.7</ele>
        <time>1970-01-01T00:00:00Z</time>
      </trkpt>
      <trkpt lat="43.07309" lon="0.52614">
        <ele>447.4</ele>
        <time>1970-01-01T00:00:00Z</time>
      </trkpt>
      <trkpt lat="43.07328" lon="0.52501">
        <ele>445.9</ele>
        <time>1970-01-01T00:00:00Z</time>
      </trkpt>
      <trkpt lat="43.07358" lon="0.52434">
        <ele>445.3</ele>
        <time>1970-01-01T00:00:00Z</time>
      </trkpt>
      <trkpt lat="43.07305" lon="0.52386">
        <ele>442.1</ele>
        <time>1970-01-01T00:00:00Z</time>
      </trkpt>
      <trkpt lat="43.07225" lon="0.5233">
        <ele>439.7</ele>
        <time>1970-01-01T00:00:00Z</time>
      </trkpt>
      <trkpt lat="43.07138" lon="0.52253">
        <ele>440.3</ele>
        <time>1970-01-01T00:00:00Z</time>
      </trkpt>
      <trkpt lat="43.07094" lon="0.52176">
        <ele>439.9</ele>
        <time>1970-01-01T00:00:00Z</time>
      </trkpt>
      <trkpt lat="43.07056" lon="0.52119">
        <ele>441.1</ele>
        <time>1970-01-01T00:00:00Z</time>
      </trkpt>
      <trkpt lat="43.0696" lon="0.52022">
        <ele>441.5</ele>
        <time>1970-01-01T00:00:00Z</time>
      </trkpt>
      <trkpt lat="43.06856" lon="0.51988">
        <ele>443.9</ele>
        <time>1970-01-01T00:00:00Z</time>
      </trkpt>
      <trkpt lat="43.06779" lon="0.51945">
        <ele>449.4</ele>
        <time>1970-01-01T00:00:00Z</time>
      </trkpt>
      <trkpt lat="43.06729" lon="0.519">
        <ele>452.4</ele>
        <time>1970-01-01T00:00:00Z</time>
      </trkpt>
      <trkpt lat="43.06747" lon="0.51696">
        <ele>455</ele>
        <time>1970-01-01T00:00:00Z</time>
      </trkpt>
      <trkpt lat="43.06765" lon="0.515">
        <ele>455.1</ele>
        <time>1970-01-01T00:00:00Z</time>
      </trkpt>
      <trkpt lat="43.06776" lon="0.51238">
        <ele>452</ele>
        <time>1970-01-01T00:00:00Z</time>
      </trkpt>
      <trkpt lat="43.06746" lon="0.51154">
        <ele>453.9</ele>
        <time>1970-01-01T00:00:00Z</time>
      </trkpt>
      <trkpt lat="43.06729" lon="0.51086">
        <ele>453.8</ele>
        <time>1970-01-01T00:00:00Z</time>
      </trkpt>
      <trkpt lat="43.06724" lon="0.50968">
        <ele>454</ele>
        <time>1970-01-01T00:00:00Z</time>
      </trkpt>
      <trkpt lat="43.06722" lon="0.50858">
        <ele>455.4</ele>
        <time>1970-01-01T00:00:00Z</time>
      </trkpt>
      <trkpt lat="43.06704" lon="0.50783">
        <ele>456.5</ele>
        <time>1970-01-01T00:00:00Z</time>
      </trkpt>
      <trkpt lat="43.06668" lon="0.50732">
        <ele>457.8</ele>
        <time>1970-01-01T00:00:00Z</time>
      </trkpt>
      <trkpt lat="43.06657" lon="0.50644">
        <ele>457</ele>
        <time>1970-01-01T00:00:00Z</time>
      </trkpt>
      <trkpt lat="43.06641" lon="0.50573">
        <ele>457.1</ele>
        <time>1970-01-01T00:00:00Z</time>
      </trkpt>
      <trkpt lat="43.06648" lon="0.50423">
        <ele>458.4</ele>
        <time>1970-01-01T00:00:00Z</time>
      </trkpt>
      <trkpt lat="43.06627" lon="0.50326">
        <ele>460.9</ele>
        <time>1970-01-01T00:00:00Z</time>
      </trkpt>
      <trkpt lat="43.06624" lon="0.50267">
        <ele>461.1</ele>
        <time>1970-01-01T00:00:00Z</time>
      </trkpt>
      <trkpt lat="43.06642" lon="0.50188">
        <ele>460.3</ele>
        <time>1970-01-01T00:00:00Z</time>
      </trkpt>
      <trkpt lat="43.06683" lon="0.50083">
        <ele>460.8</ele>
        <time>1970-01-01T00:00:00Z</time>
      </trkpt>
      <trkpt lat="43.06717" lon="0.49967">
        <ele>462</ele>
        <time>1970-01-01T00:00:00Z</time>
      </trkpt>
      <trkpt lat="43.06795" lon="0.49821">
        <ele>462.8</ele>
        <time>1970-01-01T00:00:00Z</time>
      </trkpt>
      <trkpt lat="43.06792" lon="0.49737">
        <ele>461.4</ele>
        <time>1970-01-01T00:00:00Z</time>
      </trkpt>
      <trkpt lat="43.06763" lon="0.49601">
        <ele>459.7</ele>
        <time>1970-01-01T00:00:00Z</time>
      </trkpt>
      <trkpt lat="43.06755" lon="0.49542">
        <ele>460.3</ele>
        <time>1970-01-01T00:00:00Z</time>
      </trkpt>
      <trkpt lat="43.06752" lon="0.49402">
        <ele>458.5</ele>
        <time>1970-01-01T00:00:00Z</time>
      </trkpt>
      <trkpt lat="43.06765" lon="0.49323">
        <ele>456.5</ele>
        <time>1970-01-01T00:00:00Z</time>
      </trkpt>
      <trkpt lat="43.06764" lon="0.49115">
        <ele>458.4</ele>
        <time>1970-01-01T00:00:00Z</time>
      </trkpt>
      <trkpt lat="43.06731" lon="0.48979">
        <ele>464.1</ele>
        <time>1970-01-01T00:00:00Z</time>
      </trkpt>
      <trkpt lat="43.06689" lon="0.48746">
        <ele>462.5</ele>
        <time>1970-01-01T00:00:00Z</time>
      </trkpt>
      <trkpt lat="43.06631" lon="0.48698">
        <ele>464.7</ele>
        <time>1970-01-01T00:00:00Z</time>
      </trkpt>
      <trkpt lat="43.0657" lon="0.48654">
        <ele>467.9</ele>
        <time>1970-01-01T00:00:00Z</time>
      </trkpt>
      <trkpt lat="43.06521" lon="0.48573">
        <ele>472.7</ele>
        <time>1970-01-01T00:00:00Z</time>
      </trkpt>
      <trkpt lat="43.0647" lon="0.48482">
        <ele>474.7</ele>
        <time>1970-01-01T00:00:00Z</time>
      </trkpt>
      <trkpt lat="43.06443" lon="0.48415">
        <ele>476.1</ele>
        <time>1970-01-01T00:00:00Z</time>
      </trkpt>
      <trkpt lat="43.06426" lon="0.48356">
        <ele>477.6</ele>
        <time>1970-01-01T00:00:00Z</time>
      </trkpt>
      <trkpt lat="43.06388" lon="0.48253">
        <ele>481.3</ele>
        <time>1970-01-01T00:00:00Z</time>
      </trkpt>
      <trkpt lat="43.06404" lon="0.4816">
        <ele>480.4</ele>
        <time>1970-01-01T00:00:00Z</time>
      </trkpt>
      <trkpt lat="43.06424" lon="0.4808">
        <ele>478.9</ele>
        <time>1970-01-01T00:00:00Z</time>
      </trkpt>
      <trkpt lat="43.06469" lon="0.47914">
        <ele>483.8</ele>
        <time>1970-01-01T00:00:00Z</time>
      </trkpt>
      <trkpt lat="43.06555" lon="0.47733">
        <ele>480.1</ele>
        <time>1970-01-01T00:00:00Z</time>
      </trkpt>
      <trkpt lat="43.0664" lon="0.47568">
        <ele>479.6</ele>
        <time>1970-01-01T00:00:00Z</time>
      </trkpt>
      <trkpt lat="43.06659" lon="0.47518">
        <ele>479.9</ele>
        <time>1970-01-01T00:00:00Z</time>
      </trkpt>
      <trkpt lat="43.06635" lon="0.47409">
        <ele>476.6</ele>
        <time>1970-01-01T00:00:00Z</time>
      </trkpt>
      <trkpt lat="43.06588" lon="0.47204">
        <ele>475.1</ele>
        <time>1970-01-01T00:00:00Z</time>
      </trkpt>
      <trkpt lat="43.06593" lon="0.47092">
        <ele>472.6</ele>
        <time>1970-01-01T00:00:00Z</time>
      </trkpt>
      <trkpt lat="43.0657" lon="0.47026">
        <ele>473.5</ele>
        <time>1970-01-01T00:00:00Z</time>
      </trkpt>
      <trkpt lat="43.06584" lon="0.4671">
        <ele>473</ele>
        <time>1970-01-01T00:00:00Z</time>
      </trkpt>
      <trkpt lat="43.06578" lon="0.46633">
        <ele>473.7</ele>
        <time>1970-01-01T00:00:00Z</time>
      </trkpt>
      <trkpt lat="43.06574" lon="0.46554">
        <ele>475</ele>
        <time>1970-01-01T00:00:00Z</time>
      </trkpt>
      <trkpt lat="43.06583" lon="0.46519">
        <ele>475.6</ele>
        <time>1970-01-01T00:00:00Z</time>
      </trkpt>
      <trkpt lat="43.06617" lon="0.46474">
        <ele>478.7</ele>
        <time>1970-01-01T00:00:00Z</time>
      </trkpt>
      <trkpt lat="43.06704" lon="0.46406">
        <ele>481.5</ele>
        <time>1970-01-01T00:00:00Z</time>
      </trkpt>
      <trkpt lat="43.06757" lon="0.46374">
        <ele>480.8</ele>
        <time>1970-01-01T00:00:00Z</time>
      </trkpt>
      <trkpt lat="43.06824" lon="0.46373">
        <ele>485.3</ele>
        <time>1970-01-01T00:00:00Z</time>
      </trkpt>
      <trkpt lat="43.06864" lon="0.46396">
        <ele>487.2</ele>
        <time>1970-01-01T00:00:00Z</time>
      </trkpt>
      <trkpt lat="43.0692" lon="0.46424">
        <ele>485.2</ele>
        <time>1970-01-01T00:00:00Z</time>
      </trkpt>
      <trkpt lat="43.06944" lon="0.46436">
        <ele>483.8</ele>
        <time>1970-01-01T00:00:00Z</time>
      </trkpt>
      <trkpt lat="43.06959" lon="0.46328">
        <ele>484</ele>
        <time>1970-01-01T00:00:00Z</time>
      </trkpt>
      <trkpt lat="43.06983" lon="0.46177">
        <ele>488.9</ele>
        <time>1970-01-01T00:00:00Z</time>
      </trkpt>
      <trkpt lat="43.0698" lon="0.46106">
        <ele>490</ele>
        <time>1970-01-01T00:00:00Z</time>
      </trkpt>
      <trkpt lat="43.0703" lon="0.46062">
        <ele>490</ele>
        <time>1970-01-01T00:00:00Z</time>
      </trkpt>
      <trkpt lat="43.07083" lon="0.46001">
        <ele>489</ele>
        <time>1970-01-01T00:00:00Z</time>
      </trkpt>
      <trkpt lat="43.07134" lon="0.45916">
        <ele>484.5</ele>
        <time>1970-01-01T00:00:00Z</time>
      </trkpt>
      <trkpt lat="43.07186" lon="0.45768">
        <ele>492.3</ele>
        <time>1970-01-01T00:00:00Z</time>
      </trkpt>
      <trkpt lat="43.07217" lon="0.45722">
        <ele>493.2</ele>
        <time>1970-01-01T00:00:00Z</time>
      </trkpt>
      <trkpt lat="43.07222" lon="0.45629">
        <ele>493.3</ele>
        <time>1970-01-01T00:00:00Z</time>
      </trkpt>
      <trkpt lat="43.07242" lon="0.45543">
        <ele>493.7</ele>
        <time>1970-01-01T00:00:00Z</time>
      </trkpt>
      <trkpt lat="43.07266" lon="0.45442">
        <ele>495.3</ele>
        <time>1970-01-01T00:00:00Z</time>
      </trkpt>
      <trkpt lat="43.07307" lon="0.45307">
        <ele>493.6</ele>
        <time>1970-01-01T00:00:00Z</time>
      </trkpt>
      <trkpt lat="43.0734" lon="0.45167">
        <ele>495.6</ele>
        <time>1970-01-01T00:00:00Z</time>
      </trkpt>
      <trkpt lat="43.07395" lon="0.45013">
        <ele>495.9</ele>
        <time>1970-01-01T00:00:00Z</time>
      </trkpt>
      <trkpt lat="43.07428" lon="0.4491">
        <ele>498.4</ele>
        <time>1970-01-01T00:00:00Z</time>
      </trkpt>
      <trkpt lat="43.07464" lon="0.44783">
        <ele>487.5</ele>
        <time>1970-01-01T00:00:00Z</time>
      </trkpt>
      <trkpt lat="43.07472" lon="0.44723">
        <ele>487.5</ele>
        <time>1970-01-01T00:00:00Z</time>
      </trkpt>
      <trkpt lat="43.07485" lon="0.44682">
        <ele>489</ele>
        <time>1970-01-01T00:00:00Z</time>
      </trkpt>
      <trkpt lat="43.07529" lon="0.4461">
        <ele>491.3</ele>
        <time>1970-01-01T00:00:00Z</time>
      </trkpt>
      <trkpt lat="43.0759" lon="0.44448">
        <ele>493.2</ele>
        <time>1970-01-01T00:00:00Z</time>
      </trkpt>
      <trkpt lat="43.07607" lon="0.44363">
        <ele>495.9</ele>
        <time>1970-01-01T00:00:00Z</time>
      </trkpt>
      <trkpt lat="43.07623" lon="0.44336">
        <ele>506.4</ele>
        <time>1970-01-01T00:00:00Z</time>
      </trkpt>
      <trkpt lat="43.07672" lon="0.44314">
        <ele>519.4</ele>
        <time>1970-01-01T00:00:00Z</time>
      </trkpt>
      <trkpt lat="43.07681" lon="0.44232">
        <ele>520.9</ele>
        <time>1970-01-01T00:00:00Z</time>
      </trkpt>
      <trkpt lat="43.07686" lon="0.44117">
        <ele>522.1</ele>
        <time>1970-01-01T00:00:00Z</time>
      </trkpt>
      <trkpt lat="43.07681" lon="0.44052">
        <ele>523.4</ele>
        <time>1970-01-01T00:00:00Z</time>
      </trkpt>
      <trkpt lat="43.07686" lon="0.44013">
        <ele>525.6</ele>
        <time>1970-01-01T00:00:00Z</time>
      </trkpt>
      <trkpt lat="43.07691" lon="0.43937">
        <ele>529.8</ele>
        <time>1970-01-01T00:00:00Z</time>
      </trkpt>
      <trkpt lat="43.07697" lon="0.43851">
        <ele>533.1</ele>
        <time>1970-01-01T00:00:00Z</time>
      </trkpt>
      <trkpt lat="43.07707" lon="0.43785">
        <ele>535.6</ele>
        <time>1970-01-01T00:00:00Z</time>
      </trkpt>
      <trkpt lat="43.07721" lon="0.43739">
        <ele>537.5</ele>
        <time>1970-01-01T00:00:00Z</time>
      </trkpt>
      <trkpt lat="43.07756" lon="0.43709">
        <ele>540.1</ele>
        <time>1970-01-01T00:00:00Z</time>
      </trkpt>
      <trkpt lat="43.0777" lon="0.43709">
        <ele>540.5</ele>
        <time>1970-01-01T00:00:00Z</time>
      </trkpt>
      <trkpt lat="43.07781" lon="0.43624">
        <ele>535.3</ele>
        <time>1970-01-01T00:00:00Z</time>
      </trkpt>
      <trkpt lat="43.07806" lon="0.4338">
        <ele>538.5</ele>
        <time>1970-01-01T00:00:00Z</time>
      </trkpt>
      <trkpt lat="43.07825" lon="0.4326">
        <ele>539</ele>
        <time>1970-01-01T00:00:00Z</time>
      </trkpt>
      <trkpt lat="43.07846" lon="0.43154">
        <ele>539</ele>
        <time>1970-01-01T00:00:00Z</time>
      </trkpt>
      <trkpt lat="43.07857" lon="0.43108">
        <ele>542.5</ele>
        <time>1970-01-01T00:00:00Z</time>
      </trkpt>
      <trkpt lat="43.07875" lon="0.43032">
        <ele>545.3</ele>
        <time>1970-01-01T00:00:00Z</time>
      </trkpt>
      <trkpt lat="43.079" lon="0.42923">
        <ele>549.4</ele>
        <time>1970-01-01T00:00:00Z</time>
      </trkpt>
      <trkpt lat="43.07937" lon="0.42799">
        <ele>549.7</ele>
        <time>1970-01-01T00:00:00Z</time>
      </trkpt>
      <trkpt lat="43.07979" lon="0.42646">
        <ele>552.9</ele>
        <time>1970-01-01T00:00:00Z</time>
      </trkpt>
      <trkpt lat="43.08007" lon="0.42532">
        <ele>553.2</ele>
        <time>1970-01-01T00:00:00Z</time>
      </trkpt>
      <trkpt lat="43.08039" lon="0.4242">
        <ele>552.5</ele>
        <time>1970-01-01T00:00:00Z</time>
      </trkpt>
      <trkpt lat="43.08194" lon="0.41413">
        <ele>562.4</ele>
        <time>1970-01-01T00:00:00Z</time>
      </trkpt>
      <trkpt lat="43.0823" lon="0.41188">
        <ele>563.4</ele>
        <time>1970-01-01T00:00:00Z</time>
      </trkpt>
      <trkpt lat="43.08236" lon="0.41058">
        <ele>562.1</ele>
        <time>1970-01-01T00:00:00Z</time>
      </trkpt>
      <trkpt lat="43.08251" lon="0.4088">
        <ele>563.6</ele>
        <time>1970-01-01T00:00:00Z</time>
      </trkpt>
      <trkpt lat="43.08199" lon="0.40426">
        <ele>565.5</ele>
        <time>1970-01-01T00:00:00Z</time>
      </trkpt>
      <trkpt lat="43.08168" lon="0.40302">
        <ele>565.4</ele>
        <time>1970-01-01T00:00:00Z</time>
      </trkpt>
      <trkpt lat="43.08123" lon="0.40036">
        <ele>568</ele>
        <time>1970-01-01T00:00:00Z</time>
      </trkpt>
      <trkpt lat="43.08087" lon="0.39825">
        <ele>569.1</ele>
        <time>1970-01-01T00:00:00Z</time>
      </trkpt>
      <trkpt lat="43.08071" lon="0.39684">
        <ele>569.2</ele>
        <time>1970-01-01T00:00:00Z</time>
      </trkpt>
      <trkpt lat="43.08038" lon="0.39497">
        <ele>570.5</ele>
        <time>1970-01-01T00:00:00Z</time>
      </trkpt>
      <trkpt lat="43.07841" lon="0.39099">
        <ele>575.5</ele>
        <time>1970-01-01T00:00:00Z</time>
      </trkpt>
      <trkpt lat="43.07887" lon="0.38134">
        <ele>579.7</ele>
        <time>1970-01-01T00:00:00Z</time>
      </trkpt>
      <trkpt lat="43.07919" lon="0.38023">
        <ele>579.7</ele>
        <time>1970-01-01T00:00:00Z</time>
      </trkpt>
      <trkpt lat="43.08211" lon="0.37573">
        <ele>602.9</ele>
        <time>1970-01-01T00:00:00Z</time>
      </trkpt>
      <trkpt lat="43.08249" lon="0.37466">
        <ele>602.1</ele>
        <time>1970-01-01T00:00:00Z</time>
      </trkpt>
      <trkpt lat="43.08259" lon="0.3736">
        <ele>601.5</ele>
        <time>1970-01-01T00:00:00Z</time>
      </trkpt>
      <trkpt lat="43.08258" lon="0.37301">
        <ele>604.4</ele>
        <time>1970-01-01T00:00:00Z</time>
      </trkpt>
      <trkpt lat="43.08277" lon="0.37265">
        <ele>609.2</ele>
        <time>1970-01-01T00:00:00Z</time>
      </trkpt>
      <trkpt lat="43.08312" lon="0.37275">
        <ele>611.2</ele>
        <time>1970-01-01T00:00:00Z</time>
      </trkpt>
      <trkpt lat="43.0832" lon="0.3724">
        <ele>615.7</ele>
        <time>1970-01-01T00:00:00Z</time>
      </trkpt>
      <trkpt lat="43.08296" lon="0.37209">
        <ele>616.2</ele>
        <time>1970-01-01T00:00:00Z</time>
      </trkpt>
      <trkpt lat="43.08204" lon="0.36729">
        <ele>643.8</ele>
        <time>1970-01-01T00:00:00Z</time>
      </trkpt>
      <trkpt lat="43.0807" lon="0.36505">
        <ele>645.4</ele>
        <time>1970-01-01T00:00:00Z</time>
      </trkpt>
      <trkpt lat="43.0804" lon="0.36408">
        <ele>643.1</ele>
        <time>1970-01-01T00:00:00Z</time>
      </trkpt>
      <trkpt lat="43.08041" lon="0.36318">
        <ele>645.8</ele>
        <time>1970-01-01T00:00:00Z</time>
      </trkpt>
      <trkpt lat="43.08069" lon="0.36289">
        <ele>647.2</ele>
        <time>1970-01-01T00:00:00Z</time>
      </trkpt>
      <trkpt lat="43.08037" lon="0.36255">
        <ele>647.3</ele>
        <time>1970-01-01T00:00:00Z</time>
      </trkpt>
      <trkpt lat="43.08017" lon="0.36146">
        <ele>649.3</ele>
        <time>1970-01-01T00:00:00Z</time>
      </trkpt>
      <trkpt lat="43.08065" lon="0.36066">
        <ele>651.8</ele>
        <time>1970-01-01T00:00:00Z</time>
      </trkpt>
      <trkpt lat="43.08081" lon="0.35986">
        <ele>652.3</ele>
        <time>1970-01-01T00:00:00Z</time>
      </trkpt>
      <trkpt lat="43.08041" lon="0.35886">
        <ele>655.1</ele>
        <time>1970-01-01T00:00:00Z</time>
      </trkpt>
      <trkpt lat="43.08018" lon="0.35847">
        <ele>656.5</ele>
        <time>1970-01-01T00:00:00Z</time>
      </trkpt>
      <trkpt lat="43.08033" lon="0.35418">
        <ele>658.8</ele>
        <time>1970-01-01T00:00:00Z</time>
      </trkpt>
      <trkpt lat="43.08262" lon="0.34907">
        <ele>651.9</ele>
        <time>1970-01-01T00:00:00Z</time>
      </trkpt>
      <trkpt lat="43.08726" lon="0.33881">
        <ele>639.7</ele>
        <time>1970-01-01T00:00:00Z</time>
      </trkpt>
      <trkpt lat="43.08785" lon="0.33782">
        <ele>639.3</ele>
        <time>1970-01-01T00:00:00Z</time>
      </trkpt>
      <trkpt lat="43.09749" lon="0.33012">
        <ele>614.9</ele>
        <time>1970-01-01T00:00:00Z</time>
      </trkpt>
      <trkpt lat="43.10097" lon="0.32725">
        <ele>607.9</ele>
        <time>1970-01-01T00:00:00Z</time>
      </trkpt>
      <trkpt lat="43.10437" lon="0.32795">
        <ele>597.1</ele>
        <time>1970-01-01T00:00:00Z</time>
      </trkpt>
      <trkpt lat="43.10572" lon="0.32429">
        <ele>590.1</ele>
        <time>1970-01-01T00:00:00Z</time>
      </trkpt>
      <trkpt lat="43.10581" lon="0.32385">
        <ele>588.8</ele>
        <time>1970-01-01T00:00:00Z</time>
      </trkpt>
      <trkpt lat="43.10539" lon="0.32372">
        <ele>592</ele>
        <time>1970-01-01T00:00:00Z</time>
      </trkpt>
      <trkpt lat="43.1059" lon="0.32265">
        <ele>590.7</ele>
        <time>1970-01-01T00:00:00Z</time>
      </trkpt>
    </trkseg>
  </trk>
</gpx>